Tracking 17780 objects as of 27-July-2016
HD Live streaming from Space Station
objects crossing your sky now

SL-16 DEB

Track SL-16 DEB now!
10-day predictions


NORAD ID: 24303
Int'l Code: 1996-051G
Perigee: 823.7 km
Apogee: 922.8 km
Inclination: 71.1 °
Period: 102.3 minutes
Semi major axis: 7244 km
RCS: 0.4797 m2 (medium)
Launch date: September 4, 1996
Source: Commonwealth of Independent States (former USSR) (CIS)
Launch site: TYURATAM MISSILE AND SPACE COMPLEX (TTMTR)

Note: This is SATELLITE DEBRIS
Your satellite tracking list
Your tracking list is empty





NASA's NSSDC Master Catalog

Two Line Element Set (TLE):
1 24303U 96051G   16209.51550921 -.00000075  00000-0 -17209-4 0  9996
2 24303  71.1075 290.6322 0068400  88.9137   3.3418 14.08034321 22530
Source of the keplerian elements: AFSPC

N2YO: 1142